Location: Proctor
(47.8934°N, 114.3048°W)
Time: 11:30:57
(UTC+00:00)

Transit 4A - Pass Details

Date: 27 June 2024
Orbit: 870 x 973 km, 66.8° (Epoch: 13 July)

Event Time Altitude Azimuth Distance (km) Brightness Sun altitude
Rises 05:37:06 0° 225° (SW) 3,457 10.7 -13.6°
Reaches altitude 10° 05:39:37 10° 229° (SW) 2,517 10.0 -13.8°
Maximum altitude 05:45:21 60° 309° (NW) 996 8.4 -14.3°
Drops below altitude 10° 05:51:07 10° 30° (NNE) 2,534 10.7 -14.7°
Sets 05:53:40 0° 34° (NE) 3,484 11.3 -14.9°
